Date String (YYYY-MM-DD hh:mm:ss) UTC,Instrument flags,Ambient pressure (hPa),Sample flow (lpm),Bypass flow (lpm),Sample temperature (°C),Ambient temperature (°C),ASC tube jacket temperature (°C),LED temperature (°C),Box temperature (°C),Sample RH (%),Span deviation,Mass concentration (μg/m³),Mass concentration (μg/m³),Mass concentration (μg/m³)
DateTimeUTC,F1_M11,P_M11,Q1_M11,Q2_M11,T1_M11,T2_M11,T3_M11,T4_M11,T5_M11,U1_M11,ZSPAN_M11,X0_M11,X2_M11,X1_M11
2022-02-06 00:00:00,,0824.7,5.02,0.00,22.9,22.0,00.0,31.9,24.7,07.7,0000.0,0001.81,0000.53,0000.40
2022-02-06 00:01:00,,0824.7,4.99,0.00,22.9,22.0,00.0,31.9,24.6,07.6,0000.0,0001.79,0000.53,0000.40
2022-02-06 00:02:00,,0824.7,5.01,0.00,22.8,22.0,00.0,31.9,24.4,07.4,0000.0,0001.82,0000.54,0000.40
2022-02-06 00:03:00,,0824.6,5.00,0.00,22.8,22.0,00.0,31.9,24.4,07.6,0000.0,0001.84,0000.55,0000.40
2022-02-06 00:04:00,,0824.7,5.00,0.00,22.8,22.0,00.0,31.9,24.4,07.3,0000.0,0002.01,0000.56,0000.40
2022-02-06 00:05:00,,0824.8,5.00,0.00,22.8,22.0,00.0,31.9,24.4,07.0,0000.0,0001.97,0000.55,0000.41
2022-02-06 00:06:00,,0824.8,4.99,0.00,22.8,22.0,00.0,31.9,24.5,07.4,0000.0,0001.97,0000.55,0000.42
2022-02-06 00:07:00,,0824.7,5.00,0.00,22.8,22.0,00.0,31.9,24.5,07.2,0000.0,0001.98,0000.56,0000.42
2022-02-06 00:08:00,,0824.7,5.00,0.00,22.7,21.9,00.0,31.8,24.4,07.1,0000.0,0001.96,0000.55,0000.43
2022-02-06 00:09:00,,0824.9,5.00,0.00,22.7,21.9,00.0,31.8,24.4,07.6,0000.0,0001.60,0000.57,0000.43
2022-02-06 00:10:00,,0824.9,4.99,0.00,22.7,21.9,00.0,31.8,24.3,07.8,0000.0,0001.02,0000.58,0000.43
2022-02-06 00:11:00,,0824.9,5.00,0.00,22.7,21.9,00.0,31.8,24.3,07.8,0000.0,0001.03,0000.59,0000.44
2022-02-06 00:12:00,,0824.9,5.00,0.00,22.7,21.9,00.0,31.8,24.2,08.0,0000.0,0001.02,0000.58,0000.44
2022-02-06 00:13:00,,0824.7,5.01,0.00,22.7,21.8,00.0,31.8,24.3,08.2,0000.0,0001.11,0000.60,0000.45
2022-02-06 00:14:00,,0824.8,5.00,0.00,22.7,21.8,00.0,31.7,24.4,07.5,0000.0,0001.23,0000.64,0000.46
2022-02-06 00:15:00,,0824.8,5.01,0.00,22.7,21.8,00.0,31.7,24.4,07.6,0000.0,0001.08,0000.65,0000.46
2022-02-06 00:16:00,,0824.7,4.99,0.00,22.6,21.7,00.0,31.7,24.4,07.6,0000.0,0001.09,0000.65,0000.46
2022-02-06 00:17:00,,0824.7,5.01,0.00,22.6,21.7,00.0,31.7,24.3,07.2,0000.0,0001.11,0000.66,0000.45
2022-02-06 00:18:00,,0824.7,4.99,0.00,22.6,21.6,00.0,31.7,24.3,07.3,0000.0,0001.20,0000.67,0000.45
2022-02-06 00:19:00,,0824.8,5.01,0.00,22.6,21.6,00.0,31.7,24.3,07.5,0000.0,0001.33,0000.69,0000.45
2022-02-06 00:20:00,,0824.6,4.99,0.00,22.6,21.5,00.0,31.6,24.3,07.8,0000.0,0001.38,0000.70,0000.46
2022-02-06 00:21:00,,0824.6,5.00,0.00,22.5,21.5,00.0,31.6,24.2,07.4,0000.0,0001.31,0000.67,0000.46
2022-02-06 00:22:00,,0824.7,4.99,0.00,22.5,21.4,00.0,31.6,24.2,07.3,0000.0,0001.28,0000.66,0000.46
2022-02-06 00:23:00,,0824.6,5.00,0.00,22.5,21.4,00.0,31.6,24.2,07.3,0000.0,0001.32,0000.67,0000.45
2022-02-06 00:24:00,,0824.6,5.01,0.00,22.5,21.3,00.0,31.5,24.1,07.3,0000.0,0001.21,0000.65,0000.45
2022-02-06 00:25:00,,0824.8,5.00,0.00,22.4,21.3,00.0,31.5,24.1,07.0,0000.0,0001.10,0000.60,0000.44
2022-02-06 00:26:00,,0824.9,5.00,0.00,22.4,21.3,00.0,31.5,24.1,07.2,0000.0,0001.07,0000.59,0000.44
2022-02-06 00:27:00,,0824.9,5.00,0.00,22.4,21.3,00.0,31.5,24.1,07.8,0000.0,0001.10,0000.59,0000.44
2022-02-06 00:28:00,,0825.0,5.00,0.00,22.4,21.3,00.0,31.5,24.1,07.7,0000.0,0001.13,0000.61,0000.44
2022-02-06 00:29:00,,0825.1,5.00,0.00,22.3,21.3,00.0,31.5,24.0,07.5,0000.0,0001.03,0000.58,0000.44
2022-02-06 00:30:00,,0825.2,4.99,0.00,22.3,21.3,00.0,31.4,23.9,07.0,0000.0,0000.89,0000.55,0000.44
2022-02-06 00:31:00,,0825.2,5.01,0.00,22.3,21.3,00.0,31.4,23.8,07.5,0000.0,0000.81,0000.53,0000.44
2022-02-06 00:32:00,,0825.1,5.01,0.00,22.3,21.3,00.0,31.4,23.7,07.8,0000.0,0000.78,0000.54,0000.44
2022-02-06 00:33:00,,0825.2,4.98,0.00,22.3,21.3,00.0,31.4,23.7,07.3,0000.0,0000.78,0000.54,0000.44
2022-02-06 00:34:00,,0825.2,5.02,0.00,22.3,21.3,00.0,31.4,23.8,07.3,0000.0,0000.74,0000.52,0000.44
2022-02-06 00:35:00,,0825.1,4.99,0.00,22.2,21.3,00.0,31.4,23.8,07.4,0000.0,0000.74,0000.52,0000.44
2022-02-06 00:36:00,,0825.2,5.00,0.00,22.2,21.3,00.0,31.4,23.8,07.6,0000.0,0000.71,0000.52,0000.44
2022-02-06 00:37:00,,0825.1,5.00,0.00,22.2,21.3,00.0,31.3,23.7,07.5,0000.0,0000.75,0000.54,0000.45
2022-02-06 00:38:00,,0825.1,5.00,0.00,22.2,21.4,00.0,31.3,23.7,07.4,0000.0,0000.73,0000.53,0000.46
2022-02-06 00:39:00,,0825.1,4.99,0.00,22.2,21.4,00.0,31.3,23.7,07.0,0000.0,0000.72,0000.54,0000.47
2022-02-06 00:40:00,,0825.1,5.01,0.00,22.2,21.4,00.0,31.3,23.7,07.2,0000.0,0000.75,0000.55,0000.47
2022-02-06 00:41:00,,0825.1,4.99,0.00,22.2,21.4,00.0,31.3,23.8,07.4,0000.0,0000.82,0000.58,0000.48
2022-02-06 00:42:00,,0825.2,5.01,0.00,22.2,21.4,00.0,31.3,23.7,07.4,0000.0,0001.11,0000.63,0000.48
2022-02-06 00:43:00,,0825.2,5.00,0.00,22.2,21.4,00.0,31.3,23.8,07.7,0000.0,0002.05,0000.65,0000.48
2022-02-06 00:44:00,,0825.2,5.00,0.00,22.2,21.4,00.0,31.3,23.8,07.9,0000.0,0002.35,0000.65,0000.48
2022-02-06 00:45:00,,0825.2,5.00,0.00,22.2,21.4,00.0,31.3,23.8,07.7,0000.0,0002.82,0000.69,0000.48
2022-02-06 00:46:00,,0825.2,4.99,0.00,22.2,21.4,00.0,31.3,23.9,07.2,0000.0,0002.96,0000.72,0000.49
2022-02-06 00:47:00,,0825.2,5.01,0.00,22.2,21.3,00.0,31.3,23.8,07.3,0000.0,0003.00,0000.74,0000.49
2022-02-06 00:48:00,,0825.3,4.99,0.00,22.2,21.3,00.0,31.3,23.8,07.3,0000.0,0003.03,0000.75,0000.49
2022-02-06 00:49:00,,0825.2,5.01,0.00,22.2,21.3,00.0,31.3,23.7,07.4,0000.0,0003.01,0000.73,0000.48
2022-02-06 00:50:00,,0825.3,5.00,0.00,22.2,21.3,00.0,31.3,23.8,07.3,0000.0,0003.00,0000.72,0000.47
2022-02-06 00:51:00,,0825.3,5.00,0.00,22.1,21.2,00.0,31.3,23.7,07.4,0000.0,0003.03,0000.74,0000.47
2022-02-06 00:52:00,,0825.4,5.00,0.00,22.1,21.2,00.0,31.2,23.6,07.6,0000.0,0003.36,0000.78,0000.47
2022-02-06 00:53:00,,0825.4,4.99,0.00,22.1,21.2,00.0,31.2,23.7,07.7,0000.0,0003.16,0000.72,0000.47
2022-02-06 00:54:00,,0825.4,5.00,0.00,22.1,21.2,00.0,31.2,23.7,07.7,0000.0,0002.35,0000.69,0000.47
2022-02-06 00:55:00,,0825.4,4.99,0.00,22.1,21.2,00.0,31.2,23.7,07.9,0000.0,0001.97,0000.69,0000.47
2022-02-06 00:56:00,,0825.4,5.01,0.00,22.1,21.3,00.0,31.2,23.8,07.5,0000.0,0001.44,0000.69,0000.46
2022-02-06 00:57:00,,0825.5,5.00,0.00,22.1,21.3,00.0,31.2,23.8,07.2,0000.0,0001.30,0000.66,0000.46
2022-02-06 00:58:00,,0825.5,5.01,0.00,22.1,21.3,00.0,31.2,23.8,07.1,0000.0,0001.36,0000.68,0000.46
2022-02-06 00:59:00,,0825.4,5.00,0.00,22.1,21.3,00.0,31.2,23.8,07.5,0000.0,0001.34,0000.67,0000.45
